Powrót do katalogu

SL-8 DEB

AktywnyLEO
NORAD 17754·DEBRIS·🇷🇺 Russia

Wystrzelony Sep 4, 1985 z Plesetsk Cosmodrome

Loading…

Następne Przeloty (najbliższe 24 godziny)

TLE

ŚwieżeSource: Space-Track

Epoka: Sep 14, 2026, 04:21 UTC

1 17754U 85079C   26257.18130681  .00000890  00000-0  22166-3 0  9990
2 17754  74.0336 257.6455 0015969 303.5394 180.3028 14.53097421152950

Śledź SL-8 DEB w czasie rzeczywistym z AllMySat

Download on the App Store